Location: Mentone
(34.5413°N, 85.5351°W)
Time: 08:36:50
(UTC-05:00)

A-11 Canister half - Visible Passes

Search period start: 18 April 2014 00:00
Search period end: 28 April 2014 00:00
Orbit: 1526 x 1683 km, 47.3° (Epoch: 17 April)

Date Brightness Start Highest point End Pass type
(mag) Time Alt. Az. Time Alt. Az. Time Alt. Az.
18 Apr 9.4 21:03:17 10° WNW 21:13:09 60° SW 21:18:32 30° SSE visible
18 Apr 10.8 23:12:32 10° W 23:16:45 13° WSW 23:16:51 13° WSW visible
19 Apr 9.4 20:41:42 10° WNW 20:51:38 63° SW 20:58:28 22° SSE visible
19 Apr 10.8 22:50:25 10° W 22:55:18 15° WSW 22:56:48 14° SW visible
20 Apr 9.4 20:20:06 10° WNW 20:30:07 66° SW 20:38:27 16° SE visible
20 Apr 10.7 22:28:23 10° W 22:33:51 16° WSW 22:36:48 14° SW visible
21 Apr 9.4 19:58:32 10° WNW 20:08:35 70° SW 20:18:25 10° SE visible
21 Apr 10.7 22:06:26 10° W 22:12:24 18° WSW 22:16:50 13° SSW visible
22 Apr 9.4 19:36:57 10° WNW 19:47:04 73° SW 19:56:57 10° SE visible
22 Apr 10.8 21:44:33 10° W 21:50:57 19° WSW 21:56:56 11° SSW visible
23 Apr 10.8 21:22:42 10° W 21:29:29 21° SW 21:36:11 10° SSW visible
24 Apr 10.8 21:00:53 10° WNW 21:08:01 22° SW 21:15:04 10° S visible
25 Apr 10.7 20:39:06 10° WNW 20:46:33 24° SW 20:53:55 10° S visible
26 Apr 10.7 20:17:21 10° WNW 20:25:05 26° SW 20:32:44 10° S visible
27 Apr 10.7 19:55:37 10° WNW 20:03:37 27° SW 20:11:31 10° S visible
